| time (UTC) | temp F | wind direction | speed MPH | gust MPH | rain 1hr in | rain 24hr in | rain mn in | humidity % | barometer mb |
| 20260506023043 | 68 | 313 | 5.0 | 13.0 | 0.00 | 0.01 | 0.01 | 83 | 1026.1 |
| 20260506021541 | 68 | 273 | 6.0 | 16.0 | 0.00 | 0.01 | 0.01 | 83 | 1026.0 |
| 20260506020038 | 68 | 44 | 6.0 | 16.0 | 0.00 | 0.01 | 0.01 | 84 | 1026.1 |
| 20260506014536 | 67 | 153 | 5.0 | 15.0 | 0.00 | 0.01 | 0.01 | 87 | 1026.1 |
| 20260506013046 | 68 | 86 | 5.0 | 14.0 | 0.00 | 0.01 | 0.01 | 87 | 1026.2 |
| 20260506011541 | 68 | 51 | 4.0 | 11.0 | 0.00 | 0.01 | 0.01 | 85 | 1026.3 |
| 20260506010040 | 68 | 71 | 8.0 | 14.0 | 0.00 | 0.01 | 0.01 | 84 | 1026.4 |
| 20260506004604 | 69 | 166 | 5.0 | 12.0 | 0.00 | 0.01 | 0.01 | 83 | 1026.4 |
| 20260506003035 | 68 | 331 | 6.0 | 15.0 | 0.00 | 0.01 | 0.01 | 84 | 1026.7 |
| 20260506001541 | 69 | 63 | 5.0 | 16.0 | 0.00 | 0.01 | 0.01 | 83 | 1026.9 |
| 20260506000044 | 68 | 77 | 10.0 | 16.0 | 0.00 | 0.01 | 0.01 | 83 | 1026.9 |
| 20260505234604 | 68 | 124 | 6.0 | 16.0 | 0.00 | 0.01 | 0.01 | 84 | 1027.0 |
| 20260505233041 | 68 | 71 | 9.0 | 15.0 | 0.00 | 0.01 | 0.01 | 84 | 1026.9 |
| 20260505231536 | 68 | 78 | 8.0 | 18.0 | 0.00 | 0.01 | 0.01 | 84 | 1027.1 |
| 20260505230042 | 68 | 79 | 8.0 | 17.0 | 0.00 | 0.01 | 0.01 | 83 | 1027.2 |
| 20260505224536 | 68 | 113 | 8.0 | 16.0 | 0.00 | 0.01 | 0.01 | 83 | 1027.1 |
| 20260505223052 | 68 | 84 | 8.0 | 16.0 | 0.00 | 0.01 | 0.01 | 85 | 1027.2 |
| 20260505221616 | 67 | 65 | 8.0 | 15.0 | 0.00 | 0.01 | 0.01 | 86 | 1027.2 |
| 20260505220057 | 67 | 359 | 4.0 | 15.0 | 0.00 | 0.01 | 0.01 | 86 | 1027.3 |
| 20260505214552 | 67 | 80 | 7.0 | 14.0 | 0.00 | 0.01 | 0.01 | 86 | 1027.5 |
| 20260505213043 | 67 | 70 | 7.0 | 13.0 | 0.00 | 0.01 | 0.01 | 87 | 1027.6 |
| 20260505211536 | 67 | 36 | 4.0 | 10.0 | 0.00 | 0.01 | 0.01 | 86 | 1027.9 |
| 20260505210043 | 67 | 73 | 4.0 | 9.0 | 0.01 | 0.01 | 0.01 | 87 | 1028.0 |
| 20260505204535 | 66 | 264 | 3.0 | 9.0 | 0.01 | 0.01 | 0.01 | 89 | 1027.8 |
| 20260505203039 | 66 | 340 | 4.0 | 11.0 | 0.01 | 0.01 | 0.01 | 90 | 1027.7 |
| 20260505201541 | 65 | 49 | 4.0 | 9.0 | 0.00 | 0.00 | 0.00 | 89 | 1027.5 |
| 20260505200058 | 65 | 82 | 3.0 | 9.0 | 0.00 | 0.00 | 0.00 | 88 | 1027.5 |
| 20260505194543 | 65 | 338 | 4.0 | 6.0 | 0.00 | 0.00 | 0.00 | 90 | 1027.3 |
| 20260505193042 | 65 | 53 | 3.0 | 8.0 | 0.00 | 0.00 | 0.00 | 90 | 1027.2 |
| 20260505191541 | 65 | 56 | 3.0 | 6.0 | 0.00 | 0.00 | 0.00 | 90 | 1027.2 |
| 20260505190047 | 65 | 5 | 3.0 | 7.0 | 0.00 | 0.00 | 0.00 | 91 | 1027.1 |
| 20260505184539 | 65 | 51 | 4.0 | 10.0 | 0.00 | 0.00 | 0.00 | 91 | 1027.0 |
| 20260505183048 | 65 | 31 | 5.0 | 14.0 | 0.00 | 0.00 | 0.00 | 90 | 1027.0 |
| 20260505181541 | 65 | 68 | 7.0 | 11.0 | 0.00 | 0.00 | 0.00 | 90 | 1027.0 |
| 20260505180044 | 65 | 62 | 5.0 | 13.0 | 0.00 | 0.00 | 0.00 | 89 | 1026.9 |
| 20260505174537 | 65 | 127 | 5.0 | 10.0 | 0.00 | 0.00 | 0.00 | 90 | 1027.1 |
| 20260505173043 | 64 | 91 | 3.0 | 11.0 | 0.00 | 0.00 | 0.00 | 89 | 1026.9 |
| 20260505171543 | 64 | 326 | 3.0 | 8.0 | 0.00 | 0.00 | 0.00 | 89 | 1027.0 |
| 20260505170043 | 64 | 69 | 5.0 | 12.0 | 0.00 | 0.00 | 0.00 | 89 | 1027.0 |
| 20260505164542 | 64 | 72 | 6.0 | 12.0 | 0.00 | 0.00 | 0.00 | 90 | 1027.1 |
| 20260505163037 | 65 | 349 | 6.0 | 12.0 | 0.00 | 0.00 | 0.00 | 90 | 1027.0 |
| 20260505161540 | 65 | 55 | 6.0 | 11.0 | 0.00 | 0.00 | 0.00 | 90 | 1027.1 |
| 20260505153047 | 65 | 304 | 5.0 | 11.0 | 0.00 | 0.00 | 0.00 | 87 | 1027.3 |
| 20260505151544 | 65 | 37 | 4.0 | 10.0 | 0.00 | 0.00 | 0.00 | 86 | 1027.4 |
| 20260505124548 | 66 | 340 | 5.0 | 15.0 | 0.00 | 0.00 | 0.00 | 87 | 1028.4 |
| 20260505123040 | 66 | 352 | 7.0 | 13.0 | 0.00 | 0.00 | 0.00 | 88 | 1028.4 |
| 20260505121541 | 66 | 86 | 4.0 | 13.0 | 0.00 | 0.00 | 0.00 | 87 | 1028.3 |
| 20260505120049 | 66 | 77 | 6.0 | 13.0 | 0.00 | 0.00 | 0.00 | 87 | 1028.4 |
| 20260505114545 | 66 | 102 | 8.0 | 13.0 | 0.00 | 0.00 | 0.00 | 87 | 1028.4 |
| 20260505113041 | 66 | 86 | 8.0 | 14.0 | 0.00 | 0.00 | 0.00 | 87 | 1028.4 |
| 20260505111538 | 66 | 104 | 9.0 | 14.0 | 0.00 | 0.00 | 0.00 | 88 | 1028.5 |
| 20260505101544 | 66 | 92 | 9.0 | 16.0 | 0.00 | 0.00 | 0.00 | 87 | 1028.9 |
| 20260505100040 | 66 | 41 | 7.0 | 16.0 | 0.00 | 0.00 | 0.00 | 87 | 1028.9 |
| 20260505094537 | 66 | 53 | 10.0 | 18.0 | 0.00 | 0.00 | 0.00 | 88 | 1029.0 |
| 20260505093040 | 66 | 59 | 9.0 | 14.0 | 0.00 | 0.00 | 0.00 | 88 | 1028.7 |
| 20260505091538 | 65 | 69 | 7.0 | 16.0 | 0.00 | 0.00 | 0.00 | 88 | 1028.9 |
| 20260505090042 | 65 | 98 | 9.0 | 17.0 | 0.00 | 0.00 | 0.00 | 87 | 1028.7 |
| 20260505084545 | 66 | 348 | 9.0 | 15.0 | 0.00 | 0.00 | 0.00 | 86 | 1028.8 |
| 20260505083040 | 65 | 51 | 7.0 | 12.0 | 0.00 | 0.00 | 0.00 | 86 | 1028.8 |
| 20260505081537 | 65 | 34 | 8.0 | 14.0 | 0.00 | 0.00 | 0.00 | 83 | 1028.8 |
| 20260505080046 | 65 | 7 | 8.0 | 13.0 | 0.00 | 0.00 | 0.00 | 83 | 1028.8 |
| 20260505074542 | 65 | 10 | 5.0 | 19.0 | 0.00 | 0.00 | 0.00 | 83 | 1028.8 |
| 20260505073044 | 65 | 75 | 9.0 | 16.0 | 0.00 | 0.00 | 0.00 | 85 | 1028.6 |
| 20260505071540 | 65 | 13 | 6.0 | 18.0 | 0.00 | 0.00 | 0.00 | 87 | 1028.5 |
| 20260505070050 | 66 | 61 | 10.0 | 20.0 | 0.00 | 0.00 | 0.00 | 87 | 1028.4 |
| 20260505064536 | 66 | 53 | 8.0 | 17.0 | 0.00 | 0.00 | 0.00 | 87 | 1028.3 |
| 20260505063035 | 66 | 48 | 6.0 | 15.0 | 0.00 | 0.00 | 0.00 | 87 | 1028.3 |
| 20260505061543 | 66 | 60 | 10.0 | 17.0 | 0.00 | 0.00 | 0.00 | 87 | 1028.3 |
| 20260505060042 | 65 | 51 | 8.0 | 15.0 | 0.00 | 0.00 | 0.00 | 91 | 1028.2 |
| 20260505054541 | 65 | 135 | 3.0 | 6.0 | 0.00 | 0.00 | 0.00 | 91 | 1028.2 |
| 20260505053036 | 65 | 134 | 3.0 | 8.0 | 0.00 | 0.00 | 0.00 | 90 | 1028.2 |
| 20260505051536 | 65 | 149 | 3.0 | 8.0 | 0.00 | 0.00 | 0.00 | 89 | 1028.2 |
| 20260505041550 | 66 | 143 | 4.0 | 8.0 | 0.00 | 0.00 | 0.00 | 84 | 1028.3 |
| 20260505040048 | 67 | 49 | 3.0 | 10.0 | 0.00 | 0.00 | 0.00 | 82 | 1028.3 |
| 20260505034536 | 67 | 113 | 4.0 | 10.0 | 0.00 | 0.00 | 0.00 | 80 | 1028.4 |
| 20260505033037 | 67 | 227 | 4.0 | 8.0 | 0.00 | 0.00 | 0.00 | 82 | 1028.2 |
| 20260505031542 | 67 | 2 | 4.0 | 10.0 | 0.00 | 0.00 | 0.00 | 81 | 1028.3 |
| 20260505030035 | 67 | 98 | 4.0 | 10.0 | 0.00 | 0.00 | 0.00 | 82 | 1028.4 |
| 20260505024543 | 67 | 305 | 5.0 | 13.0 | 0.00 | 0.00 | 0.00 | 82 | 1028.5 |